Wind_Speed
21 20 18 17 16 15 17 17 18 19 21 22 22 24 25 24 24 25 24 24 24 24 24 24 24 25 25 26 26 26 26 26 26 27 27 27 27 27 28 29 29 29 29 29
23 22 20 20 19 19 19 19 20 20 23 23 25 25 26 25 26 26 26 25 25 25 26 26 26 27 27 27 27 27 27 27 28 28 28 28 28 29 30 30 30 30 31 31
23 21 21 22 22 22 23 22 22 24 25 25 26 25 26 27 26 26 26 26 26 26 27 27 27 27 28 28 28 28 28 28 29 29 30 30 30 30 30 30 30 31 32 32
24 23 24 24 22 23 24 25 25 26 27 27 26 27 28 29 29 29 28 28 28 29 29 29 28 28 29 30 29 29 29 29 30 31 31 31 31 31 31 32 32 32 32 32
25 25 25 25 24 24 24 25 26 27 28 27 26 27 29 30 29 29 29 29 30 29 30 29 29 29 30 30 30 30 30 30 30 31 31 31 31 32 32 32 31 32 32 32
27 25 25 26 25 26 25 28 27 27 28 27 27 28 29 30 30 30 30 31 30 30 29 29 29 30 30 30 30 30 31 31 30 31 31 30 30 30 31 31 31 31 32 32
26 27 27 27 27 25 25 28 28 28 28 27 28 29 30 30 31 31 31 31 30 30 30 30 30 31 30 30 31 31 31 30 30 30 29 29 30 30 30 31 31 31 32 32
26 27 28 27 26 27 28 28 29 29 29 29 30 30 31 32 32 31 30 29 30 30 30 31 31 31 30 30 31 31 31 30 29 29 30 30 30 30 30 31 32 32 33 33
27 27 28 27 28 28 28 28 29 29 30 31 31 31 31 32 31 30 28 28 29 30 30 31 31 31 31 31 31 31 30 29 29 30 30 29 30 30 31 32 33 33 32 32
28 29 29 28 28 28 28 29 29 30 31 32 31 31 30 31 31 31 30 29 29 30 31 30 30 31 31 31 31 31 30 30 30 30 30 30 31 31 32 33 33 32 32 32
28 28 29 29 29 29 29 30 30 31 30 30 30 30 30 30 30 30 30 29 30 30 30 30 31 31 31 31 31 30 30 31 31 31 31 31 31 32 32 32 32 31 31 31
29 28 29 30 31 31 30 30 30 30 29 29 30 30 30 30 30 30 30 30 30 30 30 30 30 30 30 30 30 30 30 30 31 31 31 32 32 32 32 31 31 31 31 31
32 31 30 30 30 30 29 29 30 30 30 30 30 31 30 30 30 30 30 30 30 30 30 30 30 30 31 31 31 31 31 32 32 32 32 32 32 32 31 31 31 31 31 31
33 32 31 30 31 31 30 30 30 30 30 30 29 30 30 30 31 31 30 30 30 30 30 30 30 30 30 31 31 31 32 32 33 33 33 33 33 33 32 31 31 31 31 31
32 33 32 31 31 31 31 30 30 30 29 29 29 29 30 30 31 31 31 31 31 31 31 31 31 31 31 31 31 32 32 32 33 33 32 32 32 32 32 32 32 32 31 31
32 32 31 31 31 30 30 30 30 30 29 29 28 29 29 30 31 31 31 31 30 31 31 31 31 31 31 31 31 31 31 32 32 32 32 31 31 31 31 32 32 32 32 31
31 31 31 31 31 30 30 30 30 30 30 29 29 30 30 31 31 31 32 32 32 32 32 32 32 31 31 31 31 31 31 31 31 31 31 32 31 31 31 32 32 32 31 30
30 30 30 31 31 31 31 30 30 31 30 30 30 30 31 31 31 31 32 32 32 32 32 32 32 31 31 30 30 30 31 31 32 32 32 31 31 31 31 31 31 30 30 29
30 30 30 31 31 31 31 30 30 30 30 30 30 30 31 31 31 31 31 31 31 31 31 31 30 30 30 30 30 31 31 31 31 31 31 30 30 31 31 31 31 31 30 29
29 29 29 30 30 30 30 30 31 31 30 30 31 31 31 31 31 31 30 30 31 31 31 30 30 31 30 30 31 31 31 31 31 31 31 30 30 30 30 30 30 30 30 30
28 28 28 28 29 30 30 31 31 31 31 31 31 31 31 31 31 31 31 31 31 30 31 31 31 31 31 31 31 32 32 31 31 31 32 31 30 30 30 30 30 30 30 30
27 27 27 28 29 29 30 30 30 31 31 31 31 31 31 31 31 31 31 32 31 31 31 31 31 31 31 32 32 33 33 33 32 32 32 31 30 30 30 31 30 30 30 29
25 26 27 28 28 29 29 29 29 30 30 30 30 30 30 31 31 31 31 31 31 32 32 32 32 32 32 33 34 34 35 34 33 32 32 31 31 30 31 31 31 30 29 29
24 25 26 26 27 27 28 28 29 29 28 28 29 29 30 30 30 30 31 31 32 32 32 33 33 33 33 33 34 34 33 32 32 32 32 32 32 31 31 31 31 29 30 30
25 25 26 26 26 27 27 28 28 28 28 28 28 29 29 30 29 29 30 30 31 31 32 32 33 33 32 32 32 32 31 31 31 32 32 32 31 31 31 31 31 31 31 30
23 24 25 26 26 26 26 26 26 26 26 26 27 27 28 28 28 28 28 29 30 30 30 30 30 29 30 29 30 30 30 31 31 31 31 31 31 30 30 30 30 30 30 30
22 22 22 23 23 24 25 25 25 25 25 25 25 26 27 27 27 28 29 28 28 29 29 29 28 27 28 28 28 28 29 29 28 28 29 29 28 28 27 28 28 30 30 29
Wind_Direction
244 240 246 257 260 261 260 264 265 268 272 274 276 277 278 279 282 284 286 289 292 293 295 294 293 294 296 297 297 296 296 296 296 297 297 298 299 298 296 294 293 292 291 291
251 251 250 255 257 259 262 266 268 270 272 273 273 275 278 280 282 284 285 287 289 290 293 293 292 292 293 294 293 293 293 293 294 296 296 297 296 297 296 295 294 294 293 292
251 253 255 256 257 260 262 266 266 268 270 271 274 277 280 282 282 283 284 285 287 290 292 292 291 292 292 293 293 294 293 293 294 296 296 296 297 298 297 296 295 294 294 295
255 254 257 258 261 261 263 266 267 267 270 274 276 280 281 280 283 285 284 285 287 288 289 289 290 292 293 293 294 294 293 292 294 294 295 295 295 296 296 296 295 295 295 295
256 255 261 263 263 265 266 265 267 269 272 273 274 276 278 280 281 284 285 286 287 289 289 289 290 292 292 292 293 293 293 293 292 293 293 293 294 295 296 297 297 296 296 296
255 254 256 258 261 266 269 269 270 270 273 275 276 276 277 281 282 283 286 286 287 288 289 290 291 291 292 292 294 295 295 294 293 294 292 292 294 295 296 296 297 297 297 296
257 256 257 259 261 263 263 267 272 274 275 276 275 276 279 280 282 283 285 286 286 287 289 289 291 292 293 294 295 296 297 296 296 296 295 294 294 295 296 297 298 298 298 297
261 260 260 263 263 265 267 268 269 272 273 275 277 279 280 280 281 283 284 285 287 287 289 290 291 291 292 294 295 295 295 295 296 296 295 294 293 293 294 296 298 298 297 297
261 262 264 264 264 267 269 270 272 274 274 275 277 277 278 280 282 283 284 285 287 288 290 291 291 291 292 294 294 295 295 295 295 295 295 293 294 294 295 297 298 298 298 298
261 261 263 265 265 267 271 274 275 276 275 276 277 278 277 279 281 283 285 287 288 289 291 291 291 292 292 293 294 295 294 294 295 295 295 295 296 296 296 297 298 298 298 298
257 259 262 265 268 269 271 274 277 278 279 278 277 277 278 279 281 284 285 286 288 290 291 292 293 293 292 293 293 293 293 294 296 296 297 297 297 298 298 298 299 300 300 300
260 261 263 266 268 270 272 273 276 278 279 278 277 278 278 280 281 284 285 287 289 291 292 292 292 293 293 293 292 293 294 296 296 296 296 296 297 298 299 299 299 300 300 300
261 262 264 267 269 270 271 273 276 278 278 277 277 278 279 281 281 283 284 287 289 291 292 291 291 292 293 293 293 293 294 295 295 296 296 295 295 295 296 297 299 300 301 300
262 264 266 268 269 270 271 273 275 278 278 277 277 278 280 282 283 283 285 287 289 290 290 291 292 292 293 293 293 294 294 294 294 295 296 296 296 296 295 296 298 299 300 300
260 262 264 266 269 271 272 273 275 278 279 277 278 281 282 283 284 285 286 287 287 288 289 290 291 291 292 293 293 294 294 294 293 294 295 296 296 296 297 297 298 299 299 299
261 263 264 266 268 270 272 272 274 277 278 277 279 282 284 285 286 287 287 287 287 287 289 290 291 291 292 293 293 294 295 295 295 294 294 295 296 296 296 297 298 297 298 299
261 262 263 265 267 269 270 272 274 277 279 279 280 281 283 284 286 287 288 288 288 288 290 290 291 292 292 293 294 294 295 296 297 296 296 295 294 295 297 297 297 298 299 298
263 263 264 265 266 268 270 272 274 276 278 279 281 283 284 285 286 287 287 288 288 288 290 291 291 291 292 292 294 295 295 296 296 297 297 295 294 295 297 298 298 300 301 302
262 263 263 264 267 269 270 272 275 276 277 279 281 283 285 286 286 287 288 288 289 289 290 291 292 292 293 293 294 295 296 296 297 298 298 296 294 295 297 298 298 298 300 301
262 263 264 264 266 269 271 272 274 276 277 280 282 284 286 286 286 287 288 288 289 289 289 290 291 291 292 292 293 294 295 295 297 297 297 296 296 297 298 299 299 298 299 300
264 264 265 266 267 269 271 273 274 276 277 280 283 285 286 287 286 286 287 288 289 288 289 290 291 291 292 293 293 294 295 295 296 297 296 297 299 300 300 299 299 298 297 297
265 265 266 267 269 270 272 273 275 276 278 279 281 283 285 286 286 286 287 287 288 288 289 290 290 290 291 292 293 293 293 294 295 296 296 298 299 299 299 300 299 298 297 296
267 268 269 269 270 272 273 274 275 278 279 281 283 284 285 285 285 286 286 287 287 288 289 290 291 292 291 291 291 292 292 292 292 295 296 297 298 298 297 298 298 299 298 298
269 270 271 272 273 273 275 277 278 279 281 283 284 286 286 286 286 287 287 287 288 289 289 290 291 291 291 291 290 291 291 290 291 294 296 297 297 296 296 297 297 296 297 298
269 270 271 273 274 275 276 277 277 278 281 283 284 286 287 287 287 288 289 289 290 291 291 293 293 291 289 289 291 292 293 293 293 294 295 297 297 295 294 294 294 295 297 297
270 271 272 275 278 278 279 278 278 279 282 283 285 286 287 288 289 290 290 291 292 293 295 296 295 295 295 293 292 292 293 294 296 296 297 297 296 295 294 294 295 296 297 296
272 273 274 277 279 280 280 282 283 283 284 285 287 288 288 289 290 292 293 293 293 295 297 297 298 299 298 297 295 293 293 294 295 296 297 297 297 295 295 296 297 299 299 297
Height
5893 5894 5896 5896 5897 5897 5898 5898 5898 5897 5896 5895 5893 5891 5889 5887 5887 5886 5885 5884 5883 5881 5879 5877 5876 5874 5872 5870 5869 5866 5864 5862 5860 5858 5856 5854 5851 5849 5847 5845 5843 5841 5839 5837
5888 5889 5890 5891 5893 5893 5893 5893 5893 5892 5890 5889 5887 5885 5883 5882 5882 5881 5880 5878 5877 5875 5874 5872 5870 5868 5866 5865 5863 5861 5859 5856 5854 5852 5850 5847 5845 5842 5840 5838 5835 5833 5831 5829
5882 5884 5884 5886 5887 5887 5887 5886 5886 5885 5884 5883 5880 5879 5877 5876 5875 5875 5874 5872 5871 5869 5868 5866 5864 5862 5860 5858 5856 5854 5852 5850 5848 5846 5843 5841 5838 5836 5833 5830 5828 5826 5824 5822
5876 5878 5878 5881 5880 5880 5880 5880 5879 5878 5877 5876 5875 5873 5871 5870 5869 5868 5867 5866 5865 5863 5861 5859 5857 5855 5853 5851 5849 5847 5845 5843 5841 5839 5836 5834 5831 5828 5826 5823 5820 5818 5816 5813
5870 5871 5872 5873 5872 5873 5873 5872 5872 5870 5869 5869 5868 5867 5865 5863 5862 5861 5860 5859 5857 5856 5854 5852 5850 5848 5846 5844 5842 5840 5838 5836 5834 5831 5829 5827 5824 5821 5818 5816 5813 5811 5808 5806
5863 5864 5866 5866 5866 5866 5867 5864 5864 5863 5862 5861 5860 5860 5859 5857 5856 5854 5853 5852 5850 5849 5847 5844 5842 5841 5839 5837 5835 5833 5831 5828 5826 5824 5821 5819 5816 5813 5811 5808 5805 5802 5800 5798
5855 5857 5857 5858 5858 5859 5860 5858 5857 5856 5855 5854 5853 5852 5851 5850 5848 5847 5846 5844 5843 5842 5840 5838 5836 5834 5831 5829 5827 5825 5823 5820 5818 5815 5813 5811 5808 5806 5803 5800 5797 5795 5792 5790
5849 5850 5852 5851 5851 5852 5851 5850 5849 5849 5848 5847 5846 5845 5844 5842 5840 5839 5838 5837 5835 5834 5832 5830 5828 5826 5824 5822 5820 5817 5815 5812 5810 5807 5805 5802 5800 5798 5795 5792 5790 5787 5784 5782
5842 5844 5843 5843 5843 5843 5842 5842 5842 5841 5841 5839 5839 5837 5836 5834 5833 5832 5831 5829 5828 5826 5824 5822 5820 5818 5816 5814 5811 5809 5807 5804 5802 5800 5797 5794 5792 5789 5787 5785 5782 5779 5776 5773
5834 5834 5835 5834 5834 5835 5836 5835 5834 5833 5832 5832 5831 5830 5828 5827 5825 5824 5823 5822 5820 5818 5817 5814 5812 5810 5808 5806 5803 5801 5799 5796 5794 5792 5789 5786 5783 5781 5779 5776 5773 5770 5767 5765
5825 5826 5827 5828 5827 5828 5828 5827 5826 5825 5824 5823 5823 5822 5821 5819 5818 5817 5816 5815 5812 5810 5809 5806 5804 5802 5800 5798 5795 5793 5791 5789 5786 5784 5781 5778 5775 5773 5770 5767 5764 5762 5759 5756
5818 5819 5820 5820 5820 5820 5820 5819 5818 5817 5817 5816 5815 5814 5813 5812 5810 5809 5808 5807 5805 5803 5801 5799 5796 5794 5792 5789 5787 5785 5782 5780 5778 5775 5772 5770 5767 5764 5761 5759 5756 5753 5750 5747
5810 5810 5810 5811 5812 5812 5812 5811 5810 5809 5809 5808 5807 5806 5805 5804 5803 5801 5800 5799 5797 5795 5793 5791 5789 5786 5784 5781 5779 5776 5774 5772 5769 5766 5764 5761 5759 5756 5753 5751 5748 5745 5742 5739
5802 5802 5802 5803 5803 5804 5804 5803 5802 5801 5801 5800 5799 5798 5797 5796 5794 5793 5792 5790 5789 5787 5785 5783 5781 5778 5776 5773 5771 5768 5766 5763 5761 5758 5755 5752 5749 5747 5744 5742 5740 5736 5734 5730
5794 5794 5795 5795 5795 5796 5796 5795 5795 5794 5793 5792 5791 5790 5789 5788 5786 5785 5784 5782 5780 5779 5777 5775 5773 5770 5768 5765 5763 5760 5757 5754 5752 5749 5746 5743 5740 5738 5735 5733 5730 5728 5725 5722
5785 5785 5786 5787 5787 5787 5787 5787 5787 5786 5785 5784 5783 5782 5781 5780 5778 5776 5775 5773 5772 5770 5768 5766 5764 5762 5759 5757 5754 5751 5749 5746 5743 5740 5737 5735 5732 5729 5727 5724 5721 5719 5716 5713
5775 5776 5777 5778 5779 5779 5779 5779 5779 5778 5777 5776 5775 5774 5773 5772 5770 5768 5766 5765 5763 5762 5760 5758 5755 5753 5750 5748 5745 5743 5740 5738 5735 5732 5729 5726 5723 5721 5718 5715 5713 5710 5707 5704
5766 5767 5769 5770 5770 5771 5771 5771 5771 5770 5769 5769 5768 5766 5765 5763 5762 5760 5758 5756 5755 5753 5751 5749 5747 5744 5742 5740 5737 5735 5732 5730 5727 5724 5720 5718 5715 5712 5710 5707 5704 5701 5699 5696
5758 5759 5760 5761 5761 5762 5762 5762 5762 5762 5761 5760 5759 5758 5756 5755 5753 5751 5750 5748 5746 5745 5743 5741 5738 5736 5734 5731 5729 5726 5724 5721 5718 5715 5712 5709 5707 5704 5701 5699 5696 5694 5691 5688
5750 5751 5752 5752 5753 5753 5754 5754 5754 5753 5753 5752 5751 5749 5748 5746 5744 5743 5741 5739 5738 5736 5734 5731 5729 5727 5725 5723 5720 5718 5715 5713 5710 5707 5704 5701 5698 5695 5693 5690 5688 5685 5683 5680
5742 5743 5744 5744 5745 5745 5745 5745 5745 5744 5744 5743 5742 5741 5739 5737 5736 5734 5732 5731 5729 5727 5725 5723 5721 5718 5716 5714 5711 5709 5707 5704 5701 5699 5696 5693 5690 5687 5685 5682 5679 5677 5674 5672
5735 5735 5736 5736 5736 5736 5736 5736 5736 5735 5735 5734 5733 5731 5730 5728 5727 5725 5723 5722 5720 5718 5716 5714 5712 5709 5707 5705 5702 5700 5698 5695 5692 5690 5687 5684 5682 5679 5676 5674 5671 5668 5666 5663
5727 5727 5728 5728 5728 5727 5727 5727 5727 5726 5726 5725 5724 5722 5720 5719 5717 5716 5714 5712 5710 5708 5706 5704 5702 5700 5698 5695 5693 5691 5688 5686 5683 5681 5678 5676 5673 5670 5668 5665 5662 5659 5657 5655
5720 5720 5720 5720 5720 5719 5719 5718 5718 5717 5716 5716 5714 5713 5711 5710 5708 5706 5705 5703 5701 5700 5697 5695 5693 5691 5688 5686 5684 5681 5679 5676 5674 5672 5669 5667 5664 5661 5659 5656 5653 5651 5648 5646
5713 5713 5712 5712 5711 5711 5711 5710 5709 5708 5707 5706 5705 5704 5702 5701 5699 5697 5696 5694 5692 5690 5688 5686 5684 5681 5679 5676 5674 5672 5669 5667 5665 5663 5660 5658 5655 5653 5650 5647 5644 5642 5639 5637
5705 5705 5705 5704 5704 5703 5703 5701 5701 5700 5699 5698 5697 5695 5694 5692 5690 5689 5687 5685 5684 5681 5679 5677 5674 5672 5669 5667 5665 5663 5661 5659 5656 5654 5651 5649 5646 5644 5641 5639 5636 5633 5630 5628
5698 5698 5698 5697 5697 5696 5695 5694 5693 5693 5692 5690 5689 5687 5686 5684 5683 5681 5679 5677 5675 5673 5671 5668 5666 5663 5661 5658 5656 5654 5652 5650 5647 5645 5643 5640 5637 5635 5633 5630 5628 5625 5622 5619